Location: Red Rock Canyon
(36.1333°N, 115.4333°W)
Time: 17:00:37
(UTC-07:00)

ISS - Visible Passes

Search period start: 24 March 2017 00:00
Search period end: 03 April 2017 00:00
Orbit: 399 x 409 km, 51.6° (Epoch: 25 March)

Date Brightness Start Highest point End Pass type
(mag) Time Alt. Az. Time Alt. Az. Time Alt. Az.
24 Mar -3.2 04:57:05 50° SE 04:57:05 50° SE 04:59:38 10° SE visible
25 Mar -1.8 05:40:48 14° SW 05:40:48 14° SW 05:42:02 10° SSW visible
25 Mar -2.2 20:38:26 10° SW 20:39:58 25° SSW 20:39:58 25° SSW visible
26 Mar -2.8 19:46:32 10° SSW 19:49:21 27° SE 19:51:05 17° E visible
26 Mar -0.7 21:23:00 10° W 21:23:49 15° W 21:23:49 15° W visible
27 Mar -2.9 20:30:08 10° WSW 20:33:16 47° NW 20:34:41 27° NNE visible
28 Mar -3.9 19:37:37 10° SW 19:40:51 81° SE 19:44:06 10° NE visible
28 Mar -0.9 21:15:51 10° WNW 21:17:41 14° NNW 21:17:58 14° NNW visible
29 Mar -1.4 20:22:26 10° W 20:25:01 22° NNW 20:27:38 10° NNE visible
30 Mar -2.3 19:29:24 10° WSW 19:32:27 37° NW 19:35:31 10° NE visible
31 Mar -0.8 20:15:26 10° NW 20:16:53 12° NNW 20:18:20 10° N visible
